timestamp,waterbody_station,lease,latitude,longitude,deployment_start_date,deployment_end_date,sensor,depth,mooring,Temperature_degrees Celsius,Dissolved Oxygen_percent saturation
2022-05-13T00:00:00,Little Harbour-Melmerby Beach,,45.650204,-62.525184,2021-06-03,2022-06-19,HOBO-20291467,1.0,fixed,13.257,
2022-05-13T00:00:00,Merigomish Harbour-Olding Island,,45.644008,-62.468235,2021-06-24,2022-05-26,VR2AR-549339,5.0,fixed,8.9,
2022-05-13T00:15:00,Little Harbour-Melmerby Beach,,45.650204,-62.525184,2021-06-03,2022-06-19,HOBO-20291467,1.0,fixed,14.697,
2022-05-13T00:30:00,Little Harbour-Melmerby Beach,,45.650204,-62.525184,2021-06-03,2022-06-19,HOBO-20291467,1.0,fixed,14.912,
2022-05-13T00:45:00,Little Harbour-Melmerby Beach,,45.650204,-62.525184,2021-06-03,2022-06-19,HOBO-20291467,1.0,fixed,14.96,
2022-05-13T01:00:00,Merigomish Harbour-Olding Island,,45.644008,-62.468235,2021-06-24,2022-05-26,VR2AR-549339,5.0,fixed,9.1,
2022-05-13T01:00:00,Little Harbour-Melmerby Beach,,45.650204,-62.525184,2021-06-03,2022-06-19,HOBO-20291467,1.0,fixed,15.008,
2022-05-13T01:15:00,Little Harbour-Melmerby Beach,,45.650204,-62.525184,2021-06-03,2022-06-19,HOBO-20291467,1.0,fixed,14.984,
2022-05-13T01:30:00,Little Harbour-Melmerby Beach,,45.650204,-62.525184,2021-06-03,2022-06-19,HOBO-20291467,1.0,fixed,14.912,
2022-05-13T01:45:00,Little Harbour-Melmerby Beach,,45.650204,-62.525184,2021-06-03,2022-06-19,HOBO-20291467,1.0,fixed,14.768,
2022-05-13T02:00:00,Little Harbour-Melmerby Beach,,45.650204,-62.525184,2021-06-03,2022-06-19,HOBO-20291467,1.0,fixed,14.553,
2022-05-13T02:00:00,Merigomish Harbour-Olding Island,,45.644008,-62.468235,2021-06-24,2022-05-26,VR2AR-549339,5.0,fixed,9.5,
2022-05-13T02:15:00,Little Harbour-Melmerby Beach,,45.650204,-62.525184,2021-06-03,2022-06-19,HOBO-20291467,1.0,fixed,14.553,
2022-05-13T02:30:00,Little Harbour-Melmerby Beach,,45.650204,-62.525184,2021-06-03,2022-06-19,HOBO-20291467,1.0,fixed,14.553,
2022-05-13T02:45:00,Little Harbour-Melmerby Beach,,45.650204,-62.525184,2021-06-03,2022-06-19,HOBO-20291467,1.0,fixed,14.457,
2022-05-13T03:00:00,Little Harbour-Melmerby Beach,,45.650204,-62.525184,2021-06-03,2022-06-19,HOBO-20291467,1.0,fixed,14.385,
2022-05-13T03:00:00,Merigomish Harbour-Olding Island,,45.644008,-62.468235,2021-06-24,2022-05-26,VR2AR-549339,5.0,fixed,9.9,
2022-05-13T03:15:00,Little Harbour-Melmerby Beach,,45.650204,-62.525184,2021-06-03,2022-06-19,HOBO-20291467,1.0,fixed,14.17,
2022-05-13T03:30:00,Little Harbour-Melmerby Beach,,45.650204,-62.525184,2021-06-03,2022-06-19,HOBO-20291467,1.0,fixed,14.122,
2022-05-13T03:45:00,Little Harbour-Melmerby Beach,,45.650204,-62.525184,2021-06-03,2022-06-19,HOBO-20291467,1.0,fixed,14.074,
2022-05-13T04:00:00,Merigomish Harbour-Olding Island,,45.644008,-62.468235,2021-06-24,2022-05-26,VR2AR-549339,5.0,fixed,10.2,
2022-05-13T04:00:00,Little Harbour-Melmerby Beach,,45.650204,-62.525184,2021-06-03,2022-06-19,HOBO-20291467,1.0,fixed,13.81,
2022-05-13T04:15:00,Little Harbour-Melmerby Beach,,45.650204,-62.525184,2021-06-03,2022-06-19,HOBO-20291467,1.0,fixed,13.738,
2022-05-13T04:30:00,Little Harbour-Melmerby Beach,,45.650204,-62.525184,2021-06-03,2022-06-19,HOBO-20291467,1.0,fixed,13.906,
2022-05-13T04:45:00,Little Harbour-Melmerby Beach,,45.650204,-62.525184,2021-06-03,2022-06-19,HOBO-20291467,1.0,fixed,14.002,
2022-05-13T05:00:00,Little Harbour-Melmerby Beach,,45.650204,-62.525184,2021-06-03,2022-06-19,HOBO-20291467,1.0,fixed,14.026,
2022-05-13T05:00:00,Merigomish Harbour-Olding Island,,45.644008,-62.468235,2021-06-24,2022-05-26,VR2AR-549339,5.0,fixed,10.1,
2022-05-13T05:15:00,Little Harbour-Melmerby Beach,,45.650204,-62.525184,2021-06-03,2022-06-19,HOBO-20291467,1.0,fixed,14.002,
2022-05-13T05:30:00,Little Harbour-Melmerby Beach,,45.650204,-62.525184,2021-06-03,2022-06-19,HOBO-20291467,1.0,fixed,14.002,
2022-05-13T05:45:00,Little Harbour-Melmerby Beach,,45.650204,-62.525184,2021-06-03,2022-06-19,HOBO-20291467,1.0,fixed,13.954,
2022-05-13T06:00:00,Little Harbour-Melmerby Beach,,45.650204,-62.525184,2021-06-03,2022-06-19,HOBO-20291467,1.0,fixed,13.906,
2022-05-13T06:00:00,Merigomish Harbour-Olding Island,,45.644008,-62.468235,2021-06-24,2022-05-26,VR2AR-549339,5.0,fixed,10.0,
2022-05-13T06:15:00,Little Harbour-Melmerby Beach,,45.650204,-62.525184,2021-06-03,2022-06-19,HOBO-20291467,1.0,fixed,13.618,
2022-05-13T06:30:00,Little Harbour-Melmerby Beach,,45.650204,-62.525184,2021-06-03,2022-06-19,HOBO-20291467,1.0,fixed,13.618,
2022-05-13T06:45:00,Little Harbour-Melmerby Beach,,45.650204,-62.525184,2021-06-03,2022-06-19,HOBO-20291467,1.0,fixed,13.522,
2022-05-13T07:00:00,Little Harbour-Melmerby Beach,,45.650204,-62.525184,2021-06-03,2022-06-19,HOBO-20291467,1.0,fixed,13.666,
2022-05-13T07:00:00,Merigomish Harbour-Olding Island,,45.644008,-62.468235,2021-06-24,2022-05-26,VR2AR-549339,5.0,fixed,8.8,
2022-05-13T07:15:00,Little Harbour-Melmerby Beach,,45.650204,-62.525184,2021-06-03,2022-06-19,HOBO-20291467,1.0,fixed,13.81,
2022-05-13T07:30:00,Little Harbour-Melmerby Beach,,45.650204,-62.525184,2021-06-03,2022-06-19,HOBO-20291467,1.0,fixed,13.786,
2022-05-13T07:45:00,Little Harbour-Melmerby Beach,,45.650204,-62.525184,2021-06-03,2022-06-19,HOBO-20291467,1.0,fixed,13.714,
2022-05-13T08:00:00,Little Harbour-Melmerby Beach,,45.650204,-62.525184,2021-06-03,2022-06-19,HOBO-20291467,1.0,fixed,13.594,
2022-05-13T08:00:00,Merigomish Harbour-Olding Island,,45.644008,-62.468235,2021-06-24,2022-05-26,VR2AR-549339,5.0,fixed,8.1,
2022-05-13T08:15:00,Little Harbour-Melmerby Beach,,45.650204,-62.525184,2021-06-03,2022-06-19,HOBO-20291467,1.0,fixed,13.377,
2022-05-13T08:30:00,Little Harbour-Melmerby Beach,,45.650204,-62.525184,2021-06-03,2022-06-19,HOBO-20291467,1.0,fixed,13.112,
2022-05-13T08:45:00,Little Harbour-Melmerby Beach,,45.650204,-62.525184,2021-06-03,2022-06-19,HOBO-20291467,1.0,fixed,12.364,
2022-05-13T09:00:00,Merigomish Harbour-Olding Island,,45.644008,-62.468235,2021-06-24,2022-05-26,VR2AR-549339,5.0,fixed,7.4,
2022-05-13T09:00:00,Little Harbour-Melmerby Beach,,45.650204,-62.525184,2021-06-03,2022-06-19,HOBO-20291467,1.0,fixed,12.364,
2022-05-13T09:15:00,Little Harbour-Melmerby Beach,,45.650204,-62.525184,2021-06-03,2022-06-19,HOBO-20291467,1.0,fixed,11.71,
2022-05-13T09:30:00,Little Harbour-Melmerby Beach,,45.650204,-62.525184,2021-06-03,2022-06-19,HOBO-20291467,1.0,fixed,11.394,
2022-05-13T09:45:00,Little Harbour-Melmerby Beach,,45.650204,-62.525184,2021-06-03,2022-06-19,HOBO-20291467,1.0,fixed,11.127,
2022-05-13T10:00:00,Little Harbour-Melmerby Beach,,45.650204,-62.525184,2021-06-03,2022-06-19,HOBO-20291467,1.0,fixed,10.834,
2022-05-13T10:00:00,Merigomish Harbour-Olding Island,,45.644008,-62.468235,2021-06-24,2022-05-26,VR2AR-549339,5.0,fixed,7.1,
2022-05-13T10:15:00,Little Harbour-Melmerby Beach,,45.650204,-62.525184,2021-06-03,2022-06-19,HOBO-20291467,1.0,fixed,10.663,
2022-05-13T10:30:00,Little Harbour-Melmerby Beach,,45.650204,-62.525184,2021-06-03,2022-06-19,HOBO-20291467,1.0,fixed,10.638,
2022-05-13T10:45:00,Little Harbour-Melmerby Beach,,45.650204,-62.525184,2021-06-03,2022-06-19,HOBO-20291467,1.0,fixed,10.687,
2022-05-13T11:00:00,Little Harbour-Melmerby Beach,,45.650204,-62.525184,2021-06-03,2022-06-19,HOBO-20291467,1.0,fixed,10.736,
2022-05-13T11:00:00,Merigomish Harbour-Olding Island,,45.644008,-62.468235,2021-06-24,2022-05-26,VR2AR-549339,5.0,fixed,7.0,
2022-05-13T11:15:00,Little Harbour-Melmerby Beach,,45.650204,-62.525184,2021-06-03,2022-06-19,HOBO-20291467,1.0,fixed,10.761,
2022-05-13T11:30:00,Little Harbour-Melmerby Beach,,45.650204,-62.525184,2021-06-03,2022-06-19,HOBO-20291467,1.0,fixed,10.81,
2022-05-13T11:45:00,Little Harbour-Melmerby Beach,,45.650204,-62.525184,2021-06-03,2022-06-19,HOBO-20291467,1.0,fixed,11.2,
2022-05-13T12:00:00,Merigomish Harbour-Olding Island,,45.644008,-62.468235,2021-06-24,2022-05-26,VR2AR-549339,5.0,fixed,6.8,
2022-05-13T12:00:00,Little Harbour-Melmerby Beach,,45.650204,-62.525184,2021-06-03,2022-06-19,HOBO-20291467,1.0,fixed,10.516,
2022-05-13T12:15:00,Little Harbour-Melmerby Beach,,45.650204,-62.525184,2021-06-03,2022-06-19,HOBO-20291467,1.0,fixed,10.761,
2022-05-13T12:30:00,Little Harbour-Melmerby Beach,,45.650204,-62.525184,2021-06-03,2022-06-19,HOBO-20291467,1.0,fixed,10.907,
2022-05-13T12:45:00,Little Harbour-Melmerby Beach,,45.650204,-62.525184,2021-06-03,2022-06-19,HOBO-20291467,1.0,fixed,11.297,
2022-05-13T13:00:00,Little Harbour-Melmerby Beach,,45.650204,-62.525184,2021-06-03,2022-06-19,HOBO-20291467,1.0,fixed,11.516,
2022-05-13T13:00:00,Merigomish Harbour-Olding Island,,45.644008,-62.468235,2021-06-24,2022-05-26,VR2AR-549339,5.0,fixed,6.7,
2022-05-13T13:15:00,Little Harbour-Melmerby Beach,,45.650204,-62.525184,2021-06-03,2022-06-19,HOBO-20291467,1.0,fixed,12.05,
2022-05-13T13:30:00,Little Harbour-Melmerby Beach,,45.650204,-62.525184,2021-06-03,2022-06-19,HOBO-20291467,1.0,fixed,12.92,
2022-05-13T13:45:00,Little Harbour-Melmerby Beach,,45.650204,-62.525184,2021-06-03,2022-06-19,HOBO-20291467,1.0,fixed,13.546,
2022-05-13T14:00:00,Little Harbour-Melmerby Beach,,45.650204,-62.525184,2021-06-03,2022-06-19,HOBO-20291467,1.0,fixed,13.594,
2022-05-13T14:00:00,Merigomish Harbour-Olding Island,,45.644008,-62.468235,2021-06-24,2022-05-26,VR2AR-549339,5.0,fixed,7.0,
2022-05-13T14:15:00,Little Harbour-Melmerby Beach,,45.650204,-62.525184,2021-06-03,2022-06-19,HOBO-20291467,1.0,fixed,13.666,
2022-05-13T14:30:00,Little Harbour-Melmerby Beach,,45.650204,-62.525184,2021-06-03,2022-06-19,HOBO-20291467,1.0,fixed,13.762,
2022-05-13T14:45:00,Little Harbour-Melmerby Beach,,45.650204,-62.525184,2021-06-03,2022-06-19,HOBO-20291467,1.0,fixed,13.834,
2022-05-13T15:00:00,Merigomish Harbour-Olding Island,,45.644008,-62.468235,2021-06-24,2022-05-26,VR2AR-549339,5.0,fixed,8.9,
2022-05-13T15:00:00,Little Harbour-Melmerby Beach,,45.650204,-62.525184,2021-06-03,2022-06-19,HOBO-20291467,1.0,fixed,13.882,
2022-05-13T15:15:00,Little Harbour-Melmerby Beach,,45.650204,-62.525184,2021-06-03,2022-06-19,HOBO-20291467,1.0,fixed,13.906,
2022-05-13T15:30:00,Little Harbour-Melmerby Beach,,45.650204,-62.525184,2021-06-03,2022-06-19,HOBO-20291467,1.0,fixed,13.834,
2022-05-13T15:45:00,Little Harbour-Melmerby Beach,,45.650204,-62.525184,2021-06-03,2022-06-19,HOBO-20291467,1.0,fixed,13.81,
2022-05-13T16:00:00,Little Harbour-Melmerby Beach,,45.650204,-62.525184,2021-06-03,2022-06-19,HOBO-20291467,1.0,fixed,13.906,
2022-05-13T16:00:00,Merigomish Harbour-Olding Island,,45.644008,-62.468235,2021-06-24,2022-05-26,VR2AR-549339,5.0,fixed,9.8,
2022-05-13T16:15:00,Little Harbour-Melmerby Beach,,45.650204,-62.525184,2021-06-03,2022-06-19,HOBO-20291467,1.0,fixed,13.978,
2022-05-13T16:30:00,Little Harbour-Melmerby Beach,,45.650204,-62.525184,2021-06-03,2022-06-19,HOBO-20291467,1.0,fixed,14.026,
2022-05-13T16:45:00,Little Harbour-Melmerby Beach,,45.650204,-62.525184,2021-06-03,2022-06-19,HOBO-20291467,1.0,fixed,14.026,
2022-05-13T17:00:00,Merigomish Harbour-Olding Island,,45.644008,-62.468235,2021-06-24,2022-05-26,VR2AR-549339,5.0,fixed,10.2,
2022-05-13T17:00:00,Little Harbour-Melmerby Beach,,45.650204,-62.525184,2021-06-03,2022-06-19,HOBO-20291467,1.0,fixed,13.978,
2022-05-13T17:15:00,Little Harbour-Melmerby Beach,,45.650204,-62.525184,2021-06-03,2022-06-19,HOBO-20291467,1.0,fixed,13.978,
2022-05-13T17:30:00,Little Harbour-Melmerby Beach,,45.650204,-62.525184,2021-06-03,2022-06-19,HOBO-20291467,1.0,fixed,14.026,
2022-05-13T17:45:00,Little Harbour-Melmerby Beach,,45.650204,-62.525184,2021-06-03,2022-06-19,HOBO-20291467,1.0,fixed,14.074,
2022-05-13T18:00:00,Little Harbour-Melmerby Beach,,45.650204,-62.525184,2021-06-03,2022-06-19,HOBO-20291467,1.0,fixed,14.17,
2022-05-13T18:00:00,Merigomish Harbour-Olding Island,,45.644008,-62.468235,2021-06-24,2022-05-26,VR2AR-549339,5.0,fixed,10.3,
2022-05-13T18:15:00,Little Harbour-Melmerby Beach,,45.650204,-62.525184,2021-06-03,2022-06-19,HOBO-20291467,1.0,fixed,14.314,
2022-05-13T18:30:00,Little Harbour-Melmerby Beach,,45.650204,-62.525184,2021-06-03,2022-06-19,HOBO-20291467,1.0,fixed,14.266,
2022-05-13T18:45:00,Little Harbour-Melmerby Beach,,45.650204,-62.525184,2021-06-03,2022-06-19,HOBO-20291467,1.0,fixed,14.314,
2022-05-13T19:00:00,Little Harbour-Melmerby Beach,,45.650204,-62.525184,2021-06-03,2022-06-19,HOBO-20291467,1.0,fixed,14.218,
2022-05-13T19:00:00,Merigomish Harbour-Olding Island,,45.644008,-62.468235,2021-06-24,2022-05-26,VR2AR-549339,5.0,fixed,10.2,
2022-05-13T19:15:00,Little Harbour-Melmerby Beach,,45.650204,-62.525184,2021-06-03,2022-06-19,HOBO-20291467,1.0,fixed,14.122,
2022-05-13T19:30:00,Little Harbour-Melmerby Beach,,45.650204,-62.525184,2021-06-03,2022-06-19,HOBO-20291467,1.0,fixed,14.337,
2022-05-13T19:45:00,Little Harbour-Melmerby Beach,,45.650204,-62.525184,2021-06-03,2022-06-19,HOBO-20291467,1.0,fixed,14.553,
2022-05-13T20:00:00,Merigomish Harbour-Olding Island,,45.644008,-62.468235,2021-06-24,2022-05-26,VR2AR-549339,5.0,fixed,6.6,
2022-05-13T20:00:00,Little Harbour-Melmerby Beach,,45.650204,-62.525184,2021-06-03,2022-06-19,HOBO-20291467,1.0,fixed,14.577,
2022-05-13T20:15:00,Little Harbour-Melmerby Beach,,45.650204,-62.525184,2021-06-03,2022-06-19,HOBO-20291467,1.0,fixed,14.577,
2022-05-13T20:30:00,Little Harbour-Melmerby Beach,,45.650204,-62.525184,2021-06-03,2022-06-19,HOBO-20291467,1.0,fixed,14.601,
2022-05-13T20:45:00,Little Harbour-Melmerby Beach,,45.650204,-62.525184,2021-06-03,2022-06-19,HOBO-20291467,1.0,fixed,14.122,
2022-05-13T21:00:00,Little Harbour-Melmerby Beach,,45.650204,-62.525184,2021-06-03,2022-06-19,HOBO-20291467,1.0,fixed,13.209,
2022-05-13T21:00:00,Merigomish Harbour-Olding Island,,45.644008,-62.468235,2021-06-24,2022-05-26,VR2AR-549339,5.0,fixed,6.2,
2022-05-13T21:15:00,Little Harbour-Melmerby Beach,,45.650204,-62.525184,2021-06-03,2022-06-19,HOBO-20291467,1.0,fixed,12.582,
2022-05-13T21:30:00,Little Harbour-Melmerby Beach,,45.650204,-62.525184,2021-06-03,2022-06-19,HOBO-20291467,1.0,fixed,12.219,
2022-05-13T21:45:00,Little Harbour-Melmerby Beach,,45.650204,-62.525184,2021-06-03,2022-06-19,HOBO-20291467,1.0,fixed,11.565,
2022-05-13T22:00:00,Little Harbour-Melmerby Beach,,45.650204,-62.525184,2021-06-03,2022-06-19,HOBO-20291467,1.0,fixed,11.102,
2022-05-13T22:00:00,Merigomish Harbour-Olding Island,,45.644008,-62.468235,2021-06-24,2022-05-26,VR2AR-549339,5.0,fixed,6.0,
2022-05-13T22:15:00,Little Harbour-Melmerby Beach,,45.650204,-62.525184,2021-06-03,2022-06-19,HOBO-20291467,1.0,fixed,10.932,
2022-05-13T22:30:00,Little Harbour-Melmerby Beach,,45.650204,-62.525184,2021-06-03,2022-06-19,HOBO-20291467,1.0,fixed,10.638,
2022-05-13T22:45:00,Little Harbour-Melmerby Beach,,45.650204,-62.525184,2021-06-03,2022-06-19,HOBO-20291467,1.0,fixed,11.783,
2022-05-13T23:00:00,Merigomish Harbour-Olding Island,,45.644008,-62.468235,2021-06-24,2022-05-26,VR2AR-549339,5.0,fixed,6.0,
2022-05-13T23:00:00,Little Harbour-Melmerby Beach,,45.650204,-62.525184,2021-06-03,2022-06-19,HOBO-20291467,1.0,fixed,12.243,
2022-05-13T23:15:00,Little Harbour-Melmerby Beach,,45.650204,-62.525184,2021-06-03,2022-06-19,HOBO-20291467,1.0,fixed,11.904,
2022-05-13T23:30:00,Little Harbour-Melmerby Beach,,45.650204,-62.525184,2021-06-03,2022-06-19,HOBO-20291467,1.0,fixed,11.637,
2022-05-13T23:45:00,Little Harbour-Melmerby Beach,,45.650204,-62.525184,2021-06-03,2022-06-19,HOBO-20291467,1.0,fixed,11.078,
